Location: Lake Almanor
(40.2485°N, 121.1442°W)
Time: 23:47:23
(UTC-08:00)

STARLINK-1075 - Pass Details

Date: 29 January 2020
Orbit: 348 x 351 km, 53.0° (Epoch: 23 February)

Event Time Altitude Azimuth Distance (km) Brightness Sun altitude
Rises 18:57:00 0° 315° (NW) 2,161 7.2 -18.8°
Reaches altitude 10° 18:59:08 10° 325° (NW) 1,315 5.9 -19.2°
Enters shadow 19:00:35 23° 345° (NNW) 812 4.5 -19.4°
